Wetterdaten: Mittwoch, 05.08.2015
Datum Zeit Temp. A. Feuchte A. Luftdruck Regen Wind Richtung Richtung Sonnenschein ET UV Solar Taupunkt Windchill Windben Empfang
05.08.2015 00:03 23,1 C 54 % 1017,3 hPa 0,0 l/m 1,8 km/h (1 Bft) N-NO 28 0 min 0,000 mm 0,0 UV-I 0 W/m 13,3 C 23,1 C 4,0 km/h (1 Bft) 0,00 %
05.08.2015 00:08 23,1 C 55 % 1017,6 hPa 0,0 l/m 4,0 km/h (1 Bft) S 174 0 min 0,000 mm 0,0 UV-I 0 W/m 13,6 C 23,1 C 7,9 km/h (2 Bft) 0,00 %
05.08.2015 00:13 23,0 C 55 % 1017,7 hPa 0,0 l/m 6,5 km/h (2 Bft) W-SW 256 0 min 0,000 mm 0,0 UV-I 0 W/m 13,5 C 23,0 C 11,9 km/h (2 Bft) 0,00 %
05.08.2015 00:18 22,9 C 55 % 1017,7 hPa 0,0 l/m 2,9 km/h (1 Bft) NW 313 0 min 0,000 mm 0,0 UV-I 0 W/m 13,4 C 22,9 C 4,0 km/h (1 Bft) 0,00 %
05.08.2015 00:23 22,9 C 57 % 1017,9 hPa 0,0 l/m 2,2 km/h (1 Bft) W-NW 288 0 min 0,000 mm 0,0 UV-I 0 W/m 13,9 C 22,9 C 4,0 km/h (1 Bft) 0,00 %
05.08.2015 00:28 22,8 C 57 % 1017,9 hPa 0,0 l/m 6,5 km/h (2 Bft) W-NW 286 0 min 0,000 mm 0,0 UV-I 0 W/m 13,8 C 22,8 C 7,9 km/h (2 Bft) 0,00 %
05.08.2015 00:33 22,7 C 57 % 1018,1 hPa 0,0 l/m 0,0 km/h (0 Bft) N-NW 341 0 min 0,000 mm 0,0 UV-I 0 W/m 13,7 C 22,7 C 0,0 km/h (0 Bft) 0,00 %
05.08.2015 00:38 22,6 C 56 % 1018,1 hPa 0,0 l/m 5,4 km/h (1 Bft) N-NW 334 0 min 0,000 mm 0,0 UV-I 0 W/m 13,4 C 22,6 C 7,9 km/h (2 Bft) 0,00 %
05.08.2015 00:43 22,6 C 56 % 1018,1 hPa 0,0 l/m 9,7 km/h (2 Bft) W-NW 297 0 min 0,000 mm 0,0 UV-I 0 W/m 13,4 C 21,6 C 15,8 km/h (3 Bft) 0,00 %
05.08.2015 00:48 22,6 C 56 % 1018,2 hPa 0,0 l/m 7,2 km/h (2 Bft) NW 317 0 min 0,000 mm 0,0 UV-I 0 W/m 13,4 C 22,3 C 11,9 km/h (2 Bft) 0,00 %
05.08.2015 00:53 22,6 C 55 % 1018,2 hPa 0,0 l/m 0,0 km/h (0 Bft) W-NW 303 0 min 0,000 mm 0,0 UV-I 0 W/m 13,1 C 22,6 C 0,0 km/h (0 Bft) 0,00 %
05.08.2015 00:58 22,5 C 56 % 1018,2 hPa 0,0 l/m 4,3 km/h (1 Bft) O 84 0 min 0,000 mm 0,0 UV-I 0 W/m 13,3 C 22,5 C 7,9 km/h (2 Bft) 0,00 %
05.08.2015 01:03 22,4 C 56 % 1018,1 hPa 0,0 l/m 0,0 km/h (0 Bft) N 352 0 min 0,000 mm 0,0 UV-I 0 W/m 13,2 C 22,4 C 0,0 km/h (0 Bft) 0,00 %
05.08.2015 01:08 22,3 C 55 % 1018,3 hPa 0,0 l/m 10,4 km/h (2 Bft) W-SW 256 0 min 0,000 mm 0,0 UV-I 0 W/m 12,8 C 21,1 C 11,9 km/h (2 Bft) 0,00 %
05.08.2015 01:13 22,3 C 56 % 1018,2 hPa 0,0 l/m 3,2 km/h (1 Bft) N-NW 330 0 min 0,000 mm 0,0 UV-I 0 W/m 13,1 C 22,3 C 7,9 km/h (2 Bft) 0,00 %
05.08.2015 01:18 22,2 C 56 % 1018,3 hPa 0,0 l/m 4,0 km/h (1 Bft) O 90 0 min 0,000 mm 0,0 UV-I 0 W/m 13,0 C 22,2 C 7,9 km/h (2 Bft) 0,00 %
05.08.2015 01:23 22,1 C 56 % 1018,3 hPa 0,0 l/m 2,2 km/h (1 Bft) W-SW 256 0 min 0,000 mm 0,0 UV-I 0 W/m 12,9 C 22,1 C 4,0 km/h (1 Bft) 0,00 %
05.08.2015 01:28 22,0 C 56 % 1018,4 hPa 0,0 l/m 10,4 km/h (2 Bft) W-SW 256 0 min 0,000 mm 0,0 UV-I 0 W/m 12,8 C 20,7 C 15,8 km/h (3 Bft) 0,00 %
05.08.2015 01:33 21,9 C 57 % 1018,3 hPa 0,0 l/m 1,4 km/h (1 Bft) W-NW 295 0 min 0,000 mm 0,0 UV-I 0 W/m 13,0 C 21,9 C 4,0 km/h (1 Bft) 0,00 %
05.08.2015 01:38 21,8 C 58 % 1018,5 hPa 0,0 l/m 0,4 km/h (0 Bft) N 355 0 min 0,000 mm 0,0 UV-I 0 W/m 13,2 C 21,8 C 4,0 km/h (1 Bft) 0,00 %
05.08.2015 01:43 21,7 C 58 % 1018,4 hPa 0,0 l/m 6,5 km/h (2 Bft) W-SW 253 0 min 0,000 mm 0,0 UV-I 0 W/m 13,1 C 21,7 C 7,9 km/h (2 Bft) 0,00 %
05.08.2015 01:48 21,6 C 58 % 1018,7 hPa 0,0 l/m 0,0 km/h (0 Bft) N-NW 332 0 min 0,000 mm 0,0 UV-I 0 W/m 13,0 C 21,6 C 0,0 km/h (0 Bft) 0,00 %
05.08.2015 01:53 21,5 C 59 % 1018,6 hPa 0,0 l/m 0,0 km/h (0 Bft) N-NW 347 0 min 0,000 mm 0,0 UV-I 0 W/m 13,1 C 21,5 C 0,0 km/h (0 Bft) 0,00 %
05.08.2015 01:58 21,4 C 59 % 1018,6 hPa 0,0 l/m 4,3 km/h (1 Bft) W-NW 285 0 min 0,000 mm 0,0 UV-I 0 W/m 13,0 C 21,4 C 7,9 km/h (2 Bft) 0,00 %
05.08.2015 02:03 21,2 C 59 % 1018,3 hPa 0,0 l/m 5,8 km/h (2 Bft) W-SW 256 0 min 0,000 mm 0,0 UV-I 0 W/m 12,9 C 21,2 C 7,9 km/h (2 Bft) 0,00 %
05.08.2015 02:08 21,1 C 59 % 1018,5 hPa 0,0 l/m 3,2 km/h (1 Bft) N-NW 330 0 min 0,000 mm 0,0 UV-I 0 W/m 12,8 C 21,1 C 4,0 km/h (1 Bft) 0,00 %
05.08.2015 02:13 21,1 C 60 % 1018,6 hPa 0,0 l/m 4,0 km/h (1 Bft) W-SW 256 0 min 0,000 mm 0,0 UV-I 0 W/m 13,0 C 21,1 C 7,9 km/h (2 Bft) 0,00 %
05.08.2015 02:18 21,0 C 61 % 1018,5 hPa 0,0 l/m 4,3 km/h (1 Bft) W-SW 255 0 min 0,000 mm 0,0 UV-I 0 W/m 13,2 C 21,0 C 7,9 km/h (2 Bft) 0,00 %
05.08.2015 02:23 20,9 C 62 % 1018,6 hPa 0,0 l/m 1,8 km/h (1 Bft) W-SW 256 0 min 0,000 mm 0,0 UV-I 0 W/m 13,3 C 20,9 C 4,0 km/h (1 Bft) 0,00 %
05.08.2015 02:28 20,8 C 62 % 1018,5 hPa 0,0 l/m 0,0 km/h (0 Bft) N-NW 346 0 min 0,000 mm 0,0 UV-I 0 W/m 13,2 C 20,8 C 0,0 km/h (0 Bft) 0,00 %
05.08.2015 02:33 20,7 C 62 % 1018,7 hPa 0,0 l/m 0,7 km/h (0 Bft) N-NW 341 0 min 0,000 mm 0,0 UV-I 0 W/m 13,2 C 20,7 C 4,0 km/h (1 Bft) 0,00 %
05.08.2015 02:38 20,7 C 63 % 1018,7 hPa 0,0 l/m 1,8 km/h (1 Bft) O 96 0 min 0,000 mm 0,0 UV-I 0 W/m 13,4 C 20,7 C 4,0 km/h (1 Bft) 0,00 %
05.08.2015 02:43 20,6 C 63 % 1018,6 hPa 0,0 l/m 1,4 km/h (1 Bft) W-SW 256 0 min 0,000 mm 0,0 UV-I 0 W/m 13,3 C 20,6 C 4,0 km/h (1 Bft) 0,00 %
05.08.2015 02:48 20,5 C 64 % 1018,7 hPa 0,0 l/m 2,9 km/h (1 Bft) NW 321 0 min 0,000 mm 0,0 UV-I 0 W/m 13,5 C 20,5 C 4,0 km/h (1 Bft) 0,00 %
05.08.2015 02:53 20,4 C 64 % 1018,8 hPa 0,0 l/m 0,4 km/h (0 Bft) N 356 0 min 0,000 mm 0,0 UV-I 0 W/m 13,4 C 20,4 C 4,0 km/h (1 Bft) 0,00 %
05.08.2015 02:58 20,4 C 64 % 1018,9 hPa 0,0 l/m 0,4 km/h (0 Bft) NO 36 0 min 0,000 mm 0,0 UV-I 0 W/m 13,4 C 20,4 C 4,0 km/h (1 Bft) 0,00 %
05.08.2015 03:03 20,3 C 64 % 1018,9 hPa 0,0 l/m 0,0 km/h (0 Bft) NO 47 0 min 0,000 mm 0,0 UV-I 0 W/m 13,3 C 20,3 C 0,0 km/h (0 Bft) 0,00 %
05.08.2015 03:08 20,2 C 65 % 1019,1 hPa 0,0 l/m 0,7 km/h (0 Bft) W 263 0 min 0,000 mm 0,0 UV-I 0 W/m 13,4 C 20,2 C 4,0 km/h (1 Bft) 0,00 %
05.08.2015 03:13 20,1 C 66 % 1018,9 hPa 0,0 l/m 0,0 km/h (0 Bft) N-NW 335 0 min 0,000 mm 0,0 UV-I 0 W/m 13,5 C 20,1 C 0,0 km/h (0 Bft) 0,00 %
05.08.2015 03:18 20,0 C 68 % 1019,1 hPa 0,0 l/m 3,2 km/h (1 Bft) NW 308 0 min 0,000 mm 0,0 UV-I 0 W/m 13,9 C 20,0 C 4,0 km/h (1 Bft) 0,00 %
05.08.2015 03:23 19,8 C 68 % 1019,0 hPa 0,0 l/m 0,0 km/h (0 Bft) N 355 0 min 0,000 mm 0,0 UV-I 0 W/m 13,7 C 19,8 C 0,0 km/h (0 Bft) 0,00 %
05.08.2015 03:28 19,6 C 69 % 1019,2 hPa 0,0 l/m 0,0 km/h (0 Bft) N 352 0 min 0,000 mm 0,0 UV-I 0 W/m 13,8 C 19,6 C 0,0 km/h (0 Bft) 0,00 %
05.08.2015 03:33 19,5 C 69 % 1019,2 hPa 0,0 l/m 0,0 km/h (0 Bft) N-NO 27 0 min 0,000 mm 0,0 UV-I 0 W/m 13,7 C 19,5 C 0,0 km/h (0 Bft) 0,00 %
05.08.2015 03:38 19,5 C 69 % 1019,2 hPa 0,0 l/m 0,0 km/h (0 Bft) NO 41 0 min 0,000 mm 0,0 UV-I 0 W/m 13,7 C 19,5 C 0,0 km/h (0 Bft) 0,00 %
05.08.2015 03:43 19,5 C 70 % 1019,3 hPa 0,0 l/m 0,0 km/h (0 Bft) N 9 0 min 0,000 mm 0,0 UV-I 0 W/m 13,9 C 19,5 C 0,0 km/h (0 Bft) 0,00 %
05.08.2015 03:48 19,5 C 70 % 1019,2 hPa 0,0 l/m 0,0 km/h (0 Bft) NO 49 0 min 0,000 mm 0,0 UV-I 0 W/m 13,9 C 19,5 C 0,0 km/h (0 Bft) 0,00 %
05.08.2015 03:53 19,4 C 70 % 1019,3 hPa 0,0 l/m 1,4 km/h (1 Bft) NW 322 0 min 0,000 mm 0,0 UV-I 0 W/m 13,8 C 19,4 C 4,0 km/h (1 Bft) 0,00 %
05.08.2015 03:58 19,4 C 70 % 1019,5 hPa 0,0 l/m 0,7 km/h (0 Bft) N-NW 348 0 min 0,000 mm 0,0 UV-I 0 W/m 13,8 C 19,4 C 4,0 km/h (1 Bft) 0,00 %
05.08.2015 04:03 19,4 C 69 % 1019,4 hPa 0,0 l/m 0,0 km/h (0 Bft) N-NW 344 0 min 0,000 mm 0,0 UV-I 0 W/m 13,6 C 19,4 C 0,0 km/h (0 Bft) 0,00 %
05.08.2015 04:08 19,5 C 70 % 1019,4 hPa 0,0 l/m 0,0 km/h (0 Bft) O-NO 57 0 min 0,000 mm 0,0 UV-I 0 W/m 13,9 C 19,5 C 0,0 km/h (0 Bft) 0,00 %
05.08.2015 04:13 19,5 C 70 % 1019,4 hPa 0,0 l/m 0,0 km/h (0 Bft) N-NO 29 0 min 0,000 mm 0,0 UV-I 0 W/m 13,9 C 19,5 C 0,0 km/h (0 Bft) 0,00 %
05.08.2015 04:18 19,6 C 69 % 1019,4 hPa 0,0 l/m 1,8 km/h (1 Bft) W-NW 303 0 min 0,000 mm 0,0 UV-I 0 W/m 13,8 C 19,6 C 4,0 km/h (1 Bft) 0,00 %
05.08.2015 04:23 19,6 C 69 % 1019,5 hPa 0,0 l/m 0,0 km/h (0 Bft) N-NO 20 0 min 0,000 mm 0,0 UV-I 0 W/m 13,8 C 19,6 C 0,0 km/h (0 Bft) 0,00 %
05.08.2015 04:28 19,7 C 69 % 1019,4 hPa 0,0 l/m 0,0 km/h (0 Bft) N-NW 339 0 min 0,000 mm 0,0 UV-I 0 W/m 13,8 C 19,7 C 0,0 km/h (0 Bft) 0,00 %
05.08.2015 04:33 19,7 C 69 % 1019,5 hPa 0,0 l/m 0,0 km/h (0 Bft) N-NW 328 0 min 0,000 mm 0,0 UV-I 0 W/m 13,8 C 19,7 C 0,0 km/h (0 Bft) 0,00 %
05.08.2015 04:38 19,7 C 70 % 1019,6 hPa 0,0 l/m 0,0 km/h (0 Bft) O-NO 65 0 min 0,000 mm 0,0 UV-I 0 W/m 14,1 C 19,7 C 0,0 km/h (0 Bft) 0,00 %
05.08.2015 04:43 19,7 C 70 % 1019,5 hPa 0,0 l/m 0,0 km/h (0 Bft) N-NO 19 0 min 0,000 mm 0,0 UV-I 0 W/m 14,1 C 19,7 C 0,0 km/h (0 Bft) 0,00 %
05.08.2015 04:48 19,7 C 70 % 1019,3 hPa 0,0 l/m 0,0 km/h (0 Bft) N-NO 29 0 min 0,000 mm 0,0 UV-I 0 W/m 14,1 C 19,7 C 0,0 km/h (0 Bft) 0,00 %
05.08.2015 04:53 19,6 C 70 % 1019,5 hPa 0,0 l/m 0,0 km/h (0 Bft) N-NO 33 0 min 0,000 mm 0,0 UV-I 0 W/m 14,0 C 19,6 C 0,0 km/h (0 Bft) 0,00 %
05.08.2015 04:58 19,6 C 71 % 1019,4 hPa 0,0 l/m 0,0 km/h (0 Bft) N-NO 32 0 min 0,000 mm 0,0 UV-I 0 W/m 14,2 C 19,6 C 0,0 km/h (0 Bft) 0,00 %
05.08.2015 05:03 19,5 C 71 % 1019,3 hPa 0,0 l/m 0,0 km/h (0 Bft) NO 35 0 min 0,000 mm 0,0 UV-I 0 W/m 14,1 C 19,5 C 0,0 km/h (0 Bft) 0,00 %
05.08.2015 05:08 19,5 C 71 % 1019,5 hPa 0,0 l/m 0,0 km/h (0 Bft) NO 49 0 min 0,000 mm 0,0 UV-I 0 W/m 14,1 C 19,5 C 0,0 km/h (0 Bft) 0,00 %
05.08.2015 05:13 19,4 C 71 % 1019,4 hPa 0,0 l/m 0,0 km/h (0 Bft) NO 42 0 min 0,000 mm 0,0 UV-I 0 W/m 14,0 C 19,4 C 0,0 km/h (0 Bft) 0,00 %
05.08.2015 05:18 19,3 C 72 % 1019,5 hPa 0,0 l/m 0,0 km/h (0 Bft) NO 39 0 min 0,000 mm 0,0 UV-I 0 W/m 14,1 C 19,3 C 0,0 km/h (0 Bft) 0,00 %
05.08.2015 05:23 19,2 C 72 % 1019,6 hPa 0,0 l/m 0,0 km/h (0 Bft) N-NO 31 0 min 0,000 mm 0,0 UV-I 0 W/m 14,0 C 19,2 C 0,0 km/h (0 Bft) 0,00 %
05.08.2015 05:29 19,1 C 72 % 1019,4 hPa 0,0 l/m 0,0 km/h (0 Bft) NO 38 0 min 0,000 mm 0,0 UV-I 0 W/m 13,9 C 19,1 C 0,0 km/h (0 Bft) 0,00 %
05.08.2015 05:34 19,0 C 73 % 1019,5 hPa 0,0 l/m 0,0 km/h (0 Bft) NO 39 0 min 0,000 mm 0,0 UV-I 0 W/m 14,0 C 19,0 C 0,0 km/h (0 Bft) 0,00 %
05.08.2015 05:39 19,0 C 74 % 1019,5 hPa 0,0 l/m 0,0 km/h (0 Bft) NO 44 0 min 0,000 mm 0,0 UV-I 0 W/m 14,3 C 19,0 C 0,0 km/h (0 Bft) 0,00 %
05.08.2015 05:44 18,9 C 74 % 1019,5 hPa 0,0 l/m 0,0 km/h (0 Bft) NO 47 0 min 0,000 mm 0,0 UV-I 0 W/m 14,2 C 18,9 C 0,0 km/h (0 Bft) 0,00 %
05.08.2015 05:49 18,8 C 74 % 1019,6 hPa 0,0 l/m 0,0 km/h (0 Bft) N 354 0 min 0,000 mm 0,0 UV-I 0 W/m 14,1 C 18,8 C 0,0 km/h (0 Bft) 0,00 %
05.08.2015 05:54 18,8 C 74 % 1019,5 hPa 0,0 l/m 0,0 km/h (0 Bft) NO 38 0 min 0,000 mm 0,0 UV-I 4 W/m 14,1 C 18,8 C 0,0 km/h (0 Bft) 0,00 %
05.08.2015 05:59 18,8 C 75 % 1019,6 hPa 0,0 l/m 0,0 km/h (0 Bft) NO 47 0 min 0,000 mm 0,0 UV-I 10 W/m 14,3 C 18,8 C 0,0 km/h (0 Bft) 0,00 %
05.08.2015 06:04 18,8 C 74 % 1019,5 hPa 0,0 l/m 0,4 km/h (0 Bft) W-NW 302 5 min 0,000 mm 0,0 UV-I 22 W/m 14,1 C 18,8 C 4,0 km/h (1 Bft) 0,00 %
05.08.2015 06:09 18,8 C 73 % 1019,3 hPa 0,0 l/m 0,0 km/h (0 Bft) N 353 5 min 0,000 mm 0,0 UV-I 36 W/m 13,9 C 18,8 C 0,0 km/h (0 Bft) 0,00 %
05.08.2015 06:14 19,0 C 72 % 1019,6 hPa 0,0 l/m 0,0 km/h (0 Bft) NO 52 5 min 0,000 mm 0,0 UV-I 53 W/m 13,8 C 19,0 C 0,0 km/h (0 Bft) 0,00 %
05.08.2015 06:19 19,2 C 71 % 1019,6 hPa 0,0 l/m 0,0 km/h (0 Bft) NO 41 5 min 0,000 mm 0,0 UV-I 71 W/m 13,8 C 19,2 C 0,0 km/h (0 Bft) 0,00 %
05.08.2015 06:24 19,6 C 69 % 1019,5 hPa 0,0 l/m 0,0 km/h (0 Bft) O-NO 59 5 min 0,000 mm 0,0 UV-I 90 W/m 13,8 C 19,6 C 0,0 km/h (0 Bft) 0,00 %
05.08.2015 06:29 20,0 C 68 % 1019,6 hPa 0,0 l/m 0,0 km/h (0 Bft) NO 56 5 min 0,000 mm 0,0 UV-I 106 W/m 13,9 C 20,0 C 0,0 km/h (0 Bft) 0,00 %
05.08.2015 06:34 20,4 C 67 % 1019,5 hPa 0,0 l/m 0,0 km/h (0 Bft) N-NO 29 5 min 0,000 mm 0,0 UV-I 132 W/m 14,1 C 20,4 C 0,0 km/h (0 Bft) 0,00 %
05.08.2015 06:39 20,8 C 64 % 1019,6 hPa 0,0 l/m 0,0 km/h (0 Bft) NO 45 5 min 0,000 mm 0,0 UV-I 155 W/m 13,7 C 20,8 C 0,0 km/h (0 Bft) 0,00 %
05.08.2015 06:44 21,3 C 63 % 1019,4 hPa 0,0 l/m 0,0 km/h (0 Bft) N-NO 33 5 min 0,000 mm 0,0 UV-I 162 W/m 14,0 C 21,3 C 0,0 km/h (0 Bft) 0,00 %
05.08.2015 06:49 21,7 C 62 % 1019,4 hPa 0,0 l/m 0,0 km/h (0 Bft) N-NO 26 5 min 0,000 mm 0,0 UV-I 178 W/m 14,1 C 21,7 C 0,0 km/h (0 Bft) 0,00 %
05.08.2015 06:54 21,9 C 62 % 1019,4 hPa 0,0 l/m 0,0 km/h (0 Bft) NO 43 5 min 0,000 mm 0,0 UV-I 129 W/m 14,3 C 21,9 C 0,0 km/h (0 Bft) 0,00 %
05.08.2015 06:59 21,9 C 62 % 1019,5 hPa 0,0 l/m 0,0 km/h (0 Bft) NO 40 5 min 0,000 mm 0,0 UV-I 212 W/m 14,3 C 21,9 C 0,0 km/h (0 Bft) 0,00 %
05.08.2015 07:04 21,9 C 62 % 1019,4 hPa 0,0 l/m 0,0 km/h (0 Bft) NO 40 5 min 0,000 mm 1,0 UV-I 229 W/m 14,3 C 21,9 C 0,0 km/h (0 Bft) 0,00 %
05.08.2015 07:09 22,2 C 61 % 1019,4 hPa 0,0 l/m 0,0 km/h (0 Bft) NO 52 5 min 0,000 mm 1,0 UV-I 252 W/m 14,3 C 22,2 C 0,0 km/h (0 Bft) 0,00 %
05.08.2015 07:14 22,7 C 57 % 1019,6 hPa 0,0 l/m 0,0 km/h (0 Bft) N-NW 341 5 min 0,000 mm 1,0 UV-I 268 W/m 13,7 C 22,7 C 0,0 km/h (0 Bft) 0,00 %
05.08.2015 07:19 23,2 C 57 % 1019,6 hPa 0,0 l/m 0,0 km/h (0 Bft) NO 47 5 min 0,000 mm 1,0 UV-I 276 W/m 14,2 C 23,2 C 0,0 km/h (0 Bft) 0,00 %
05.08.2015 07:24 23,6 C 56 % 1019,5 hPa 0,0 l/m 0,0 km/h (0 Bft) N-NW 329 5 min 0,000 mm 1,0 UV-I 283 W/m 14,3 C 23,6 C 0,0 km/h (0 Bft) 0,00 %
05.08.2015 07:29 23,8 C 54 % 1019,5 hPa 0,0 l/m 0,0 km/h (0 Bft) W-NW 283 5 min 0,000 mm 1,0 UV-I 284 W/m 13,9 C 23,8 C 0,0 km/h (0 Bft) 0,00 %
05.08.2015 07:34 23,9 C 54 % 1019,3 hPa 0,0 l/m 0,0 km/h (0 Bft) NO 47 5 min 0,000 mm 1,0 UV-I 294 W/m 14,0 C 23,9 C 0,0 km/h (0 Bft) 0,00 %
05.08.2015 07:39 24,0 C 54 % 1019,5 hPa 0,0 l/m 0,0 km/h (0 Bft) W-NW 294 5 min 0,000 mm 1,0 UV-I 293 W/m 14,1 C 24,0 C 0,0 km/h (0 Bft) 0,00 %
05.08.2015 07:44 23,9 C 55 % 1019,5 hPa 0,0 l/m 2,9 km/h (1 Bft) W-SW 253 5 min 0,000 mm 1,0 UV-I 296 W/m 14,3 C 23,9 C 7,9 km/h (2 Bft) 0,00 %
05.08.2015 07:49 23,7 C 55 % 1019,6 hPa 0,0 l/m 0,0 km/h (0 Bft) NO 42 5 min 0,000 mm 1,0 UV-I 296 W/m 14,1 C 23,7 C 0,0 km/h (0 Bft) 0,00 %
05.08.2015 07:54 23,5 C 56 % 1019,6 hPa 0,0 l/m 0,0 km/h (0 Bft) N-NO 24 5 min 0,000 mm 1,0 UV-I 299 W/m 14,2 C 23,5 C 0,0 km/h (0 Bft) 0,00 %
05.08.2015 07:59 23,8 C 53 % 1019,5 hPa 0,0 l/m 0,0 km/h (0 Bft) NO 42 5 min 0,000 mm 1,0 UV-I 303 W/m 13,6 C 23,8 C 0,0 km/h (0 Bft) 0,00 %
05.08.2015 08:04 24,1 C 53 % 1019,6 hPa 0,0 l/m 0,0 km/h (0 Bft) SO 134 5 min 0,000 mm 1,0 UV-I 308 W/m 13,9 C 24,1 C 0,0 km/h (0 Bft) 0,00 %
05.08.2015 08:09 24,1 C 53 % 1018,5 hPa 0,0 l/m 2,9 km/h (1 Bft) W-SW 256 5 min 0,000 mm 1,0 UV-I 309 W/m 13,9 C 24,1 C 4,0 km/h (1 Bft) 0,00 %
05.08.2015 08:14 24,1 C 53 % 1018,4 hPa 0,0 l/m 0,0 km/h (0 Bft) NO 44 5 min 0,000 mm 1,0 UV-I 311 W/m 13,9 C 24,1 C 0,0 km/h (0 Bft) 0,00 %
05.08.2015 08:19 24,3 C 53 % 1018,6 hPa 0,0 l/m 0,7 km/h (0 Bft) NW 305 5 min 0,000 mm 1,0 UV-I 320 W/m 14,1 C 24,3 C 4,0 km/h (1 Bft) 0,00 %
05.08.2015 08:24 24,7 C 51 % 1018,5 hPa 0,0 l/m 0,0 km/h (0 Bft) N-NO 25 5 min 0,000 mm 1,0 UV-I 326 W/m 13,9 C 24,7 C 0,0 km/h (0 Bft) 0,00 %
05.08.2015 08:29 24,9 C 51 % 1018,6 hPa 0,0 l/m 0,4 km/h (0 Bft) N-NW 344 5 min 0,000 mm 1,0 UV-I 336 W/m 14,1 C 24,9 C 4,0 km/h (1 Bft) 0,00 %
05.08.2015 08:34 25,0 C 50 % 1018,4 hPa 0,0 l/m 4,3 km/h (1 Bft) W 280 5 min 0,000 mm 1,0 UV-I 347 W/m 13,8 C 25,0 C 7,9 km/h (2 Bft) 0,00 %
05.08.2015 08:39 25,3 C 49 % 1018,6 hPa 0,0 l/m 0,0 km/h (0 Bft) NW 318 5 min 0,000 mm 1,0 UV-I 354 W/m 13,8 C 25,3 C 0,0 km/h (0 Bft) 0,00 %
05.08.2015 08:44 25,5 C 50 % 1018,6 hPa 0,0 l/m 0,0 km/h (0 Bft) N-NO 21 5 min 0,000 mm 1,0 UV-I 364 W/m 14,3 C 25,5 C 0,0 km/h (0 Bft) 0,00 %
05.08.2015 08:49 25,7 C 49 % 1018,5 hPa 0,0 l/m 0,0 km/h (0 Bft) NO 40 5 min 0,000 mm 1,0 UV-I 374 W/m 14,2 C 25,7 C 0,0 km/h (0 Bft) 0,00 %
05.08.2015 08:54 26,1 C 46 % 1018,5 hPa 0,0 l/m 0,0 km/h (0 Bft) O-NO 65 5 min 0,000 mm 1,0 UV-I 384 W/m 13,6 C 26,1 C 0,0 km/h (0 Bft) 0,00 %
05.08.2015 08:59 26,6 C 45 % 1018,5 hPa 0,0 l/m 0,0 km/h (0 Bft) N 353 5 min 0,000 mm 1,0 UV-I 390 W/m 13,7 C 26,6 C 0,0 km/h (0 Bft) 0,00 %
05.08.2015 09:04 27,1 C 45 % 1018,5 hPa 0,0 l/m 0,0 km/h (0 Bft) NO 44 5 min 0,000 mm 2,0 UV-I 401 W/m 14,1 C 27,1 C 0,0 km/h (0 Bft) 0,00 %
05.08.2015 09:09 27,2 C 46 % 1018,5 hPa 0,0 l/m 0,0 km/h (0 Bft) NO 53 5 min 0,000 mm 2,0 UV-I 414 W/m 14,6 C 27,2 C 0,0 km/h (0 Bft) 0,00 %
05.08.2015 09:14 27,3 C 43 % 1018,4 hPa 0,0 l/m 0,0 km/h (0 Bft) N 359 5 min 0,000 mm 2,0 UV-I 416 W/m 13,6 C 27,3 C 0,0 km/h (0 Bft) 0,00 %
05.08.2015 09:19 27,7 C 42 % 1019,5 hPa 0,0 l/m 0,0 km/h (0 Bft) NW 312 5 min 0,000 mm 2,0 UV-I 436 W/m 13,6 C 27,7 C 0,0 km/h (0 Bft) 0,00 %
05.08.2015 09:24 28,2 C 43 % 1019,3 hPa 0,0 l/m 0,0 km/h (0 Bft) O-NO 74 5 min 0,000 mm 2,0 UV-I 449 W/m 14,4 C 28,2 C 0,0 km/h (0 Bft) 0,00 %
05.08.2015 09:29 28,4 C 42 % 1019,3 hPa 0,0 l/m 0,0 km/h (0 Bft) NO 39 5 min 0,000 mm 2,0 UV-I 462 W/m 14,2 C 28,4 C 0,0 km/h (0 Bft) 0,00 %
05.08.2015 09:34 28,5 C 42 % 1019,4 hPa 0,0 l/m 2,2 km/h (1 Bft) N-NW 347 5 min 0,000 mm 2,0 UV-I 472 W/m 14,3 C 28,5 C 4,0 km/h (1 Bft) 0,00 %
05.08.2015 09:39 28,4 C 42 % 1019,2 hPa 0,0 l/m 0,0 km/h (0 Bft) O 79 5 min 0,000 mm 2,0 UV-I 477 W/m 14,2 C 28,4 C 0,0 km/h (0 Bft) 0,00 %
05.08.2015 09:44 28,4 C 43 % 1019,4 hPa 0,0 l/m 0,0 km/h (0 Bft) NO 44 5 min 0,000 mm 2,0 UV-I 494 W/m 14,6 C 28,4 C 0,0 km/h (0 Bft) 0,00 %
05.08.2015 09:49 28,5 C 43 % 1019,3 hPa 0,0 l/m 0,0 km/h (0 Bft) N 351 5 min 0,000 mm 2,0 UV-I 509 W/m 14,7 C 28,5 C 0,0 km/h (0 Bft) 0,00 %
05.08.2015 09:54 28,7 C 41 % 1019,2 hPa 0,0 l/m 0,0 km/h (0 Bft) NO 36 5 min 0,000 mm 2,0 UV-I 521 W/m 14,1 C 28,7 C 0,0 km/h (0 Bft) 0,00 %
05.08.2015 09:59 29,1 C 41 % 1019,2 hPa 0,0 l/m 0,7 km/h (0 Bft) N-NW 332 5 min 0,000 mm 2,0 UV-I 535 W/m 14,5 C 29,1 C 4,0 km/h (1 Bft) 0,00 %
05.08.2015 10:04 29,3 C 40 % 1019,3 hPa 0,0 l/m 2,2 km/h (1 Bft) N-NO 28 5 min 0,000 mm 2,0 UV-I 546 W/m 14,3 C 29,3 C 4,0 km/h (1 Bft) 0,00 %
05.08.2015 10:09 29,2 C 40 % 1019,3 hPa 0,0 l/m 0,0 km/h (0 Bft) NO 52 5 min 0,000 mm 2,0 UV-I 558 W/m 14,2 C 29,2 C 0,0 km/h (0 Bft) 0,00 %
05.08.2015 10:14 29,1 C 41 % 1019,4 hPa 0,0 l/m 1,8 km/h (1 Bft) NW 311 5 min 0,000 mm 2,0 UV-I 565 W/m 14,5 C 29,1 C 4,0 km/h (1 Bft) 0,00 %
05.08.2015 10:19 29,1 C 40 % 1019,3 hPa 0,0 l/m 0,0 km/h (0 Bft) NO 37 5 min 0,000 mm 2,0 UV-I 578 W/m 14,1 C 29,1 C 0,0 km/h (0 Bft) 0,00 %
05.08.2015 10:24 29,1 C 40 % 1019,4 hPa 0,0 l/m 0,0 km/h (0 Bft) N-NO 32 5 min 0,000 mm 2,0 UV-I 525 W/m 14,1 C 29,1 C 0,0 km/h (0 Bft) 0,00 %
05.08.2015 10:29 29,1 C 40 % 1019,4 hPa 0,0 l/m 0,0 km/h (0 Bft) N-NO 23 5 min 0,000 mm 2,0 UV-I 538 W/m 14,1 C 29,1 C 0,0 km/h (0 Bft) 0,00 %
05.08.2015 10:34 29,3 C 40 % 1019,4 hPa 0,0 l/m 0,0 km/h (0 Bft) O-NO 75 5 min 0,000 mm 3,0 UV-I 617 W/m 14,3 C 29,3 C 0,0 km/h (0 Bft) 0,00 %
05.08.2015 10:39 29,4 C 39 % 1019,3 hPa 0,0 l/m 0,0 km/h (0 Bft) NO 48 5 min 0,000 mm 3,0 UV-I 637 W/m 14,0 C 29,4 C 0,0 km/h (0 Bft) 0,00 %
05.08.2015 10:44 29,7 C 39 % 1019,3 hPa 0,0 l/m 0,0 km/h (0 Bft) NW 312 5 min 0,000 mm 3,0 UV-I 645 W/m 14,2 C 29,7 C 0,0 km/h (0 Bft) 0,00 %
05.08.2015 10:49 29,8 C 41 % 1019,1 hPa 0,0 l/m 1,8 km/h (1 Bft) NW 312 5 min 0,000 mm 3,0 UV-I 658 W/m 15,1 C 29,8 C 4,0 km/h (1 Bft) 0,00 %
05.08.2015 10:54 29,4 C 40 % 1019,2 hPa 0,0 l/m 1,8 km/h (1 Bft) O 86 5 min 0,000 mm 3,0 UV-I 671 W/m 14,4 C 29,4 C 4,0 km/h (1 Bft) 0,00 %
05.08.2015 10:59 29,3 C 40 % 1019,3 hPa 0,0 l/m 0,0 km/h (0 Bft) NO 46 5 min 0,000 mm 3,0 UV-I 688 W/m 14,3 C 29,3 C 0,0 km/h (0 Bft) 0,00 %
05.08.2015 11:04 29,7 C 40 % 1019,1 hPa 0,0 l/m 1,4 km/h (1 Bft) NW 322 5 min 0,000 mm 3,0 UV-I 700 W/m 14,6 C 29,7 C 4,0 km/h (1 Bft) 0,00 %
05.08.2015 11:09 29,9 C 40 % 1019,1 hPa 0,0 l/m 3,2 km/h (1 Bft) SO 145 5 min 0,000 mm 3,0 UV-I 717 W/m 14,8 C 29,9 C 7,9 km/h (2 Bft) 0,00 %
05.08.2015 11:14 29,8 C 40 % 1019,0 hPa 0,0 l/m 0,0 km/h (0 Bft) N-NO 23 5 min 0,000 mm 4,0 UV-I 735 W/m 14,7 C 29,8 C 0,0 km/h (0 Bft) 0,00 %
05.08.2015 11:19 29,8 C 40 % 1019,2 hPa 0,0 l/m 0,4 km/h (0 Bft) O-SO 113 5 min 0,000 mm 4,0 UV-I 725 W/m 14,7 C 29,8 C 4,0 km/h (1 Bft) 0,00 %
05.08.2015 11:24 29,6 C 38 % 1019,0 hPa 0,0 l/m 1,4 km/h (1 Bft) O 92 5 min 0,000 mm 4,0 UV-I 737 W/m 13,8 C 29,6 C 4,0 km/h (1 Bft) 0,00 %
05.08.2015 11:29 29,6 C 39 % 1019,0 hPa 0,0 l/m 0,4 km/h (0 Bft) N-NO 17 5 min 0,000 mm 4,0 UV-I 755 W/m 14,2 C 29,6 C 4,0 km/h (1 Bft) 0,00 %
05.08.2015 11:34 29,6 C 39 % 1019,0 hPa 0,0 l/m 1,8 km/h (1 Bft) O 88 5 min 0,000 mm 4,0 UV-I 767 W/m 14,2 C 29,6 C 7,9 km/h (2 Bft) 0,00 %
05.08.2015 11:39 29,5 C 40 % 1019,0 hPa 0,0 l/m 0,0 km/h (0 Bft) NO 41 5 min 0,000 mm 4,0 UV-I 743 W/m 14,5 C 29,5 C 0,0 km/h (0 Bft) 0,00 %
05.08.2015 11:44 29,5 C 40 % 1018,9 hPa 0,0 l/m 0,0 km/h (0 Bft) O 83 5 min 0,000 mm 4,0 UV-I 767 W/m 14,5 C 29,5 C 0,0 km/h (0 Bft) 0,00 %
05.08.2015 11:49 29,5 C 40 % 1018,9 hPa 0,0 l/m 0,0 km/h (0 Bft) N-NO 20 5 min 0,000 mm 4,0 UV-I 773 W/m 14,5 C 29,5 C 0,0 km/h (0 Bft) 0,00 %
05.08.2015 11:54 29,5 C 41 % 1018,7 hPa 0,0 l/m 0,0 km/h (0 Bft) SO 131 5 min 0,000 mm 4,0 UV-I 782 W/m 14,8 C 29,5 C 0,0 km/h (0 Bft) 0,00 %
05.08.2015 11:59 29,8 C 40 % 1018,9 hPa 0,0 l/m 0,0 km/h (0 Bft) O-NO 64 5 min 0,000 mm 4,0 UV-I 793 W/m 14,7 C 29,8 C 0,0 km/h (0 Bft) 0,00 %
05.08.2015 12:04 29,8 C 40 % 1018,8 hPa 0,0 l/m 0,0 km/h (0 Bft) N-NO 32 5 min 0,000 mm 4,0 UV-I 794 W/m 14,7 C 29,8 C 0,0 km/h (0 Bft) 0,00 %
05.08.2015 12:09 29,6 C 40 % 1018,9 hPa 0,0 l/m 0,4 km/h (0 Bft) NW 309 5 min 0,000 mm 4,0 UV-I 794 W/m 14,5 C 29,6 C 4,0 km/h (1 Bft) 0,00 %
05.08.2015 12:14 29,4 C 40 % 1018,8 hPa 0,0 l/m 0,0 km/h (0 Bft) N-NO 21 5 min 0,000 mm 4,0 UV-I 807 W/m 14,4 C 29,4 C 0,0 km/h (0 Bft) 0,00 %
05.08.2015 12:19 29,5 C 40 % 1018,6 hPa 0,0 l/m 2,9 km/h (1 Bft) W-SW 256 5 min 0,000 mm 4,0 UV-I 813 W/m 14,5 C 29,5 C 4,0 km/h (1 Bft) 0,00 %
05.08.2015 12:24 29,4 C 40 % 1018,7 hPa 0,0 l/m 0,7 km/h (0 Bft) N-NW 347 5 min 0,000 mm 4,0 UV-I 819 W/m 14,4 C 29,4 C 4,0 km/h (1 Bft) 0,00 %
05.08.2015 12:29 29,2 C 41 % 1018,7 hPa 0,0 l/m 0,0 km/h (0 Bft) O-NO 75 5 min 0,000 mm 5,0 UV-I 823 W/m 14,6 C 29,2 C 0,0 km/h (0 Bft) 0,00 %
05.08.2015 12:34 28,8 C 42 % 1018,6 hPa 0,0 l/m 0,7 km/h (0 Bft) O-SO 103 5 min 0,000 mm 5,0 UV-I 822 W/m 14,6 C 28,8 C 4,0 km/h (1 Bft) 0,00 %
05.08.2015 12:39 28,7 C 40 % 1018,5 hPa 0,0 l/m 1,8 km/h (1 Bft) O-NO 72 5 min 0,000 mm 5,0 UV-I 834 W/m 13,7 C 28,7 C 4,0 km/h (1 Bft) 0,00 %
05.08.2015 12:44 28,8 C 41 % 1018,5 hPa 0,0 l/m 0,0 km/h (0 Bft) O-NO 64 5 min 0,000 mm 5,0 UV-I 831 W/m 14,2 C 28,8 C 0,0 km/h (0 Bft) 0,00 %
05.08.2015 12:49 28,8 C 41 % 1018,4 hPa 0,0 l/m 0,0 km/h (0 Bft) NO 34 5 min 0,000 mm 5,0 UV-I 841 W/m 14,2 C 28,8 C 0,0 km/h (0 Bft) 0,00 %
05.08.2015 12:54 29,0 C 40 % 1018,3 hPa 0,0 l/m 0,7 km/h (0 Bft) NO 37 5 min 0,000 mm 5,0 UV-I 856 W/m 14,0 C 29,0 C 4,0 km/h (1 Bft) 0,00 %
05.08.2015 12:59 29,5 C 40 % 1018,2 hPa 0,0 l/m 0,0 km/h (0 Bft) NO 35 5 min 0,000 mm 5,0 UV-I 852 W/m 14,5 C 29,5 C 0,0 km/h (0 Bft) 0,00 %
05.08.2015 13:04 29,6 C 40 % 1018,2 hPa 0,0 l/m 1,8 km/h (1 Bft) NO 56 5 min 0,000 mm 5,0 UV-I 855 W/m 14,5 C 29,6 C 4,0 km/h (1 Bft) 0,00 %
05.08.2015 13:09 29,4 C 40 % 1018,1 hPa 0,0 l/m 1,4 km/h (1 Bft) NO 37 5 min 0,000 mm 5,0 UV-I 858 W/m 14,4 C 29,4 C 4,0 km/h (1 Bft) 0,00 %
05.08.2015 13:14 29,2 C 38 % 1018,1 hPa 0,0 l/m 1,4 km/h (1 Bft) N 349 5 min 0,000 mm 5,0 UV-I 863 W/m 13,4 C 29,2 C 4,0 km/h (1 Bft) 0,00 %
05.08.2015 13:19 29,1 C 39 % 1017,8 hPa 0,0 l/m 1,8 km/h (1 Bft) O-NO 62 5 min 0,000 mm 5,0 UV-I 872 W/m 13,7 C 29,1 C 4,0 km/h (1 Bft) 0,00 %
05.08.2015 13:24 29,0 C 40 % 1018,1 hPa 0,0 l/m 0,7 km/h (0 Bft) O 80 5 min 0,000 mm 5,0 UV-I 866 W/m 14,0 C 29,0 C 4,0 km/h (1 Bft) 0,00 %
05.08.2015 13:29 29,0 C 40 % 1017,8 hPa 0,0 l/m 0,7 km/h (0 Bft) O 90 5 min 0,000 mm 5,0 UV-I 879 W/m 14,0 C 29,0 C 4,0 km/h (1 Bft) 0,00 %
05.08.2015 13:34 29,2 C 40 % 1017,8 hPa 0,0 l/m 0,4 km/h (0 Bft) NO 34 5 min 0,000 mm 4,0 UV-I 884 W/m 14,2 C 29,2 C 4,0 km/h (1 Bft) 0,00 %
05.08.2015 13:39 29,4 C 38 % 1017,8 hPa 0,0 l/m 5,8 km/h (2 Bft) N-NO 16 5 min 0,000 mm 4,0 UV-I 895 W/m 13,6 C 29,4 C 11,9 km/h (2 Bft) 0,00 %
05.08.2015 13:44 29,4 C 39 % 1017,8 hPa 0,0 l/m 0,0 km/h (0 Bft) O 83 5 min 0,000 mm 4,0 UV-I 876 W/m 14,0 C 29,4 C 0,0 km/h (0 Bft) 0,00 %
05.08.2015 13:49 29,3 C 37 % 1017,7 hPa 0,0 l/m 0,0 km/h (0 Bft) S 182 5 min 0,000 mm 4,0 UV-I 888 W/m 13,1 C 29,3 C 0,0 km/h (0 Bft) 0,00 %
05.08.2015 13:54 29,2 C 36 % 1017,6 hPa 0,0 l/m 0,4 km/h (0 Bft) O-NO 69 5 min 0,000 mm 4,0 UV-I 895 W/m 12,6 C 29,2 C 4,0 km/h (1 Bft) 0,00 %
05.08.2015 13:59 29,3 C 37 % 1017,7 hPa 0,0 l/m 5,8 km/h (2 Bft) O 93 5 min 0,000 mm 4,0 UV-I 901 W/m 13,1 C 29,3 C 7,9 km/h (2 Bft) 0,00 %
05.08.2015 14:04 29,4 C 37 % 1017,8 hPa 0,0 l/m 4,3 km/h (1 Bft) O-SO 119 5 min 0,000 mm 4,0 UV-I 897 W/m 13,2 C 29,4 C 7,9 km/h (2 Bft) 0,00 %
05.08.2015 14:09 29,4 C 38 % 1017,7 hPa 0,0 l/m 7,9 km/h (2 Bft) O-SO 106 5 min 0,000 mm 4,0 UV-I 901 W/m 13,6 C 29,2 C 11,9 km/h (2 Bft) 0,00 %
05.08.2015 14:14 29,4 C 38 % 1017,6 hPa 0,0 l/m 2,2 km/h (1 Bft) O 89 5 min 0,000 mm 4,0 UV-I 910 W/m 13,6 C 29,4 C 4,0 km/h (1 Bft) 0,00 %
05.08.2015 14:19 29,5 C 38 % 1017,3 hPa 0,0 l/m 1,8 km/h (1 Bft) NO 52 5 min 0,000 mm 4,0 UV-I 912 W/m 13,7 C 29,5 C 4,0 km/h (1 Bft) 0,00 %
05.08.2015 14:24 29,6 C 35 % 1017,4 hPa 0,0 l/m 2,9 km/h (1 Bft) O 90 5 min 0,000 mm 4,0 UV-I 916 W/m 12,5 C 29,6 C 7,9 km/h (2 Bft) 0,00 %
05.08.2015 14:29 29,5 C 38 % 1017,3 hPa 0,0 l/m 0,0 km/h (0 Bft) N-NO 25 5 min 0,000 mm 4,0 UV-I 917 W/m 13,7 C 29,5 C 0,0 km/h (0 Bft) 0,00 %
05.08.2015 14:34 29,6 C 36 % 1017,2 hPa 0,0 l/m 1,4 km/h (1 Bft) O 96 5 min 0,000 mm 4,0 UV-I 928 W/m 12,9 C 29,6 C 4,0 km/h (1 Bft) 0,00 %
05.08.2015 14:39 29,8 C 33 % 1017,1 hPa 0,0 l/m 4,7 km/h (1 Bft) O-SO 103 5 min 0,000 mm 4,0 UV-I 926 W/m 11,8 C 29,8 C 7,9 km/h (2 Bft) 0,00 %
05.08.2015 14:44 30,0 C 34 % 1016,9 hPa 0,0 l/m 0,0 km/h (0 Bft) N 353 5 min 0,000 mm 4,0 UV-I 931 W/m 12,4 C 30,0 C 0,0 km/h (0 Bft) 0,00 %
05.08.2015 14:49 30,2 C 32 % 1016,9 hPa 0,0 l/m 7,9 km/h (2 Bft) O 99 5 min 0,000 mm 4,0 UV-I 940 W/m 11,7 C 30,1 C 11,9 km/h (2 Bft) 0,00 %
05.08.2015 14:54 30,3 C 33 % 1016,7 hPa 0,0 l/m 2,9 km/h (1 Bft) O 100 5 min 0,000 mm 4,0 UV-I 934 W/m 12,2 C 30,3 C 4,0 km/h (1 Bft) 0,00 %
05.08.2015 14:59 30,1 C 33 % 1016,6 hPa 0,0 l/m 2,9 km/h (1 Bft) N 359 5 min 0,000 mm 4,0 UV-I 936 W/m 12,0 C 30,1 C 4,0 km/h (1 Bft) 0,00 %
05.08.2015 15:04 30,1 C 33 % 1016,6 hPa 0,0 l/m 0,0 km/h (0 Bft) N 351 5 min 0,000 mm 4,0 UV-I 935 W/m 12,0 C 30,1 C 0,0 km/h (0 Bft) 0,00 %
05.08.2015 15:09 30,2 C 35 % 1016,4 hPa 0,0 l/m 0,0 km/h (0 Bft) NO 36 5 min 0,000 mm 4,0 UV-I 937 W/m 13,0 C 30,2 C 0,0 km/h (0 Bft) 0,00 %
05.08.2015 15:14 30,4 C 30 % 1016,3 hPa 0,0 l/m 1,8 km/h (1 Bft) O-NO 70 5 min 0,000 mm 4,0 UV-I 937 W/m 10,9 C 30,4 C 4,0 km/h (1 Bft) 0,00 %
05.08.2015 15:19 30,5 C 31 % 1016,4 hPa 0,0 l/m 4,7 km/h (1 Bft) N-NO 30 5 min 0,000 mm 4,0 UV-I 931 W/m 11,4 C 30,5 C 7,9 km/h (2 Bft) 0,00 %
05.08.2015 15:24 30,4 C 32 % 1016,4 hPa 0,0 l/m 0,0 km/h (0 Bft) SO 128 5 min 0,000 mm 3,0 UV-I 926 W/m 11,8 C 30,4 C 0,0 km/h (0 Bft) 0,00 %
05.08.2015 15:29 30,2 C 33 % 1016,2 hPa 0,0 l/m 0,0 km/h (0 Bft) O 85 5 min 0,000 mm 3,0 UV-I 927 W/m 12,1 C 30,2 C 0,0 km/h (0 Bft) 0,00 %
05.08.2015 15:34 30,2 C 32 % 1016,4 hPa 0,0 l/m 0,0 km/h (0 Bft) NO 49 5 min 0,000 mm 3,0 UV-I 927 W/m 11,7 C 30,2 C 0,0 km/h (0 Bft) 0,00 %
05.08.2015 15:39 30,3 C 33 % 1016,2 hPa 0,0 l/m 0,0 km/h (0 Bft) N-NO 19 5 min 0,000 mm 3,0 UV-I 936 W/m 12,2 C 30,3 C 0,0 km/h (0 Bft) 0,00 %
05.08.2015 15:44 30,6 C 31 % 1016,1 hPa 0,0 l/m 0,0 km/h (0 Bft) N-NO 15 5 min 0,000 mm 3,0 UV-I 938 W/m 11,5 C 30,6 C 0,0 km/h (0 Bft) 0,00 %
05.08.2015 15:49 30,8 C 32 % 1016,1 hPa 0,0 l/m 0,0 km/h (0 Bft) NO 43 5 min 0,000 mm 3,0 UV-I 934 W/m 12,2 C 30,8 C 0,0 km/h (0 Bft) 0,00 %
05.08.2015 15:54 30,8 C 32 % 1015,9 hPa 0,0 l/m 0,0 km/h (0 Bft) NO 38 5 min 0,000 mm 3,0 UV-I 928 W/m 12,2 C 30,8 C 0,0 km/h (0 Bft) 0,00 %
05.08.2015 15:59 30,9 C 31 % 1015,9 hPa 0,0 l/m 0,4 km/h (0 Bft) NO 36 5 min 0,000 mm 3,0 UV-I 923 W/m 11,8 C 30,9 C 4,0 km/h (1 Bft) 0,00 %
05.08.2015 16:04 30,9 C 32 % 1016,0 hPa 0,0 l/m 1,4 km/h (1 Bft) N-NO 18 5 min 0,000 mm 3,0 UV-I 914 W/m 12,3 C 30,9 C 4,0 km/h (1 Bft) 0,00 %
05.08.2015 16:09 30,9 C 31 % 1015,8 hPa 0,0 l/m 0,4 km/h (0 Bft) O 101 5 min 0,000 mm 3,0 UV-I 912 W/m 11,8 C 30,9 C 4,0 km/h (1 Bft) 0,00 %
05.08.2015 16:14 30,9 C 32 % 1015,8 hPa 0,0 l/m 0,7 km/h (0 Bft) O 97 5 min 0,000 mm 3,0 UV-I 909 W/m 12,3 C 30,9 C 4,0 km/h (1 Bft) 0,00 %
05.08.2015 16:19 30,8 C 32 % 1015,8 hPa 0,0 l/m 1,8 km/h (1 Bft) O-NO 65 5 min 0,000 mm 2,0 UV-I 906 W/m 12,2 C 30,8 C 4,0 km/h (1 Bft) 0,00 %
05.08.2015 16:24 30,8 C 32 % 1015,5 hPa 0,0 l/m 0,0 km/h (0 Bft) N-NW 333 5 min 0,000 mm 2,0 UV-I 903 W/m 12,2 C 30,8 C 0,0 km/h (0 Bft) 0,00 %
05.08.2015 16:29 30,9 C 32 % 1015,6 hPa 0,0 l/m 0,0 km/h (0 Bft) NO 44 5 min 0,000 mm 1,0 UV-I 900 W/m 12,3 C 30,9 C 0,0 km/h (0 Bft) 0,00 %
05.08.2015 16:34 31,0 C 32 % 1015,4 hPa 0,0 l/m 1,4 km/h (1 Bft) NW 310 5 min 0,000 mm 1,0 UV-I 890 W/m 12,3 C 31,0 C 4,0 km/h (1 Bft) 0,00 %
05.08.2015 16:39 31,0 C 32 % 1015,5 hPa 0,0 l/m 0,0 km/h (0 Bft) N-NO 25 5 min 0,000 mm 1,0 UV-I 887 W/m 12,3 C 31,0 C 0,0 km/h (0 Bft) 0,00 %
05.08.2015 16:44 31,1 C 32 % 1015,4 hPa 0,0 l/m 1,4 km/h (1 Bft) N-NO 31 5 min 0,000 mm 1,0 UV-I 888 W/m 12,4 C 31,1 C 4,0 km/h (1 Bft) 0,00 %
05.08.2015 16:49 31,3 C 31 % 1015,5 hPa 0,0 l/m 0,0 km/h (0 Bft) NO 47 5 min 0,000 mm 1,0 UV-I 879 W/m 12,1 C 31,3 C 0,0 km/h (0 Bft) 0,00 %
05.08.2015 16:54 31,4 C 33 % 1015,4 hPa 0,0 l/m 1,4 km/h (1 Bft) O-NO 67 5 min 0,000 mm 1,0 UV-I 887 W/m 13,2 C 31,4 C 4,0 km/h (1 Bft) 0,00 %
05.08.2015 16:59 31,4 C 32 % 1015,3 hPa 0,0 l/m 2,2 km/h (1 Bft) O-SO 107 5 min 0,000 mm 1,0 UV-I 878 W/m 12,7 C 31,4 C 4,0 km/h (1 Bft) 0,00 %
05.08.2015 17:04 31,4 C 33 % 1015,2 hPa 0,0 l/m 0,4 km/h (0 Bft) NO 35 5 min 0,000 mm 1,0 UV-I 874 W/m 13,2 C 31,4 C 4,0 km/h (1 Bft) 0,00 %
05.08.2015 17:09 31,3 C 32 % 1015,2 hPa 0,0 l/m 0,0 km/h (0 Bft) NO 42 5 min 0,000 mm 1,0 UV-I 862 W/m 12,6 C 31,3 C 0,0 km/h (0 Bft) 0,00 %
05.08.2015 17:14 31,1 C 33 % 1015,2 hPa 0,0 l/m 0,0 km/h (0 Bft) NO 35 5 min 0,000 mm 1,0 UV-I 856 W/m 12,9 C 31,1 C 0,0 km/h (0 Bft) 0,00 %
05.08.2015 17:19 30,9 C 36 % 1015,1 hPa 0,0 l/m 0,0 km/h (0 Bft) NO 49 5 min 0,000 mm 1,0 UV-I 854 W/m 14,1 C 30,9 C 0,0 km/h (0 Bft) 0,00 %
05.08.2015 17:24 31,0 C 32 % 1015,1 hPa 0,0 l/m 0,4 km/h (0 Bft) N 359 5 min 0,000 mm 1,0 UV-I 842 W/m 12,3 C 31,0 C 4,0 km/h (1 Bft) 0,00 %
05.08.2015 17:29 31,2 C 32 % 1015,1 hPa 0,0 l/m 0,0 km/h (0 Bft) NO 36 5 min 0,000 mm 1,0 UV-I 835 W/m 12,5 C 31,2 C 0,0 km/h (0 Bft) 0,00 %
05.08.2015 17:34 31,4 C 34 % 1014,9 hPa 0,0 l/m 3,2 km/h (1 Bft) O 88 5 min 0,000 mm 1,0 UV-I 831 W/m 13,6 C 31,4 C 7,9 km/h (2 Bft) 0,00 %
05.08.2015 17:39 31,5 C 33 % 1015,0 hPa 0,0 l/m 0,4 km/h (0 Bft) O-NO 60 5 min 0,000 mm 1,0 UV-I 828 W/m 13,2 C 31,5 C 4,0 km/h (1 Bft) 0,00 %
05.08.2015 17:44 31,4 C 33 % 1014,9 hPa 0,0 l/m 4,3 km/h (1 Bft) O-SO 117 5 min 0,000 mm 1,0 UV-I 809 W/m 13,2 C 31,4 C 7,9 km/h (2 Bft) 0,00 %
05.08.2015 17:49 31,2 C 33 % 1014,8 hPa 0,0 l/m 0,4 km/h (0 Bft) O-NO 62 5 min 0,000 mm 1,0 UV-I 796 W/m 13,0 C 31,2 C 4,0 km/h (1 Bft) 0,00 %
05.08.2015 17:54 31,0 C 33 % 1014,8 hPa 0,0 l/m 0,0 km/h (0 Bft) NO 35 5 min 0,000 mm 1,0 UV-I 785 W/m 12,8 C 31,0 C 0,0 km/h (0 Bft) 0,00 %
05.08.2015 17:59 31,0 C 33 % 1014,9 hPa 0,0 l/m 0,0 km/h (0 Bft) O-NO 59 5 min 0,000 mm 1,0 UV-I 779 W/m 12,8 C 31,0 C 0,0 km/h (0 Bft) 0,00 %
05.08.2015 18:04 31,1 C 32 % 1014,7 hPa 0,0 l/m 0,0 km/h (0 Bft) O-NO 58 5 min 0,000 mm 1,0 UV-I 776 W/m 12,4 C 31,1 C 0,0 km/h (0 Bft) 0,00 %
05.08.2015 18:09 31,3 C 34 % 1014,9 hPa 0,0 l/m 0,0 km/h (0 Bft) NO 55 5 min 0,000 mm 1,0 UV-I 771 W/m 13,5 C 31,3 C 0,0 km/h (0 Bft) 0,00 %
05.08.2015 18:14 31,5 C 32 % 1014,7 hPa 0,0 l/m 2,9 km/h (1 Bft) O-NO 77 5 min 0,000 mm 1,0 UV-I 763 W/m 12,8 C 31,5 C 4,0 km/h (1 Bft) 0,00 %
05.08.2015 18:19 31,7 C 33 % 1014,8 hPa 0,0 l/m 0,0 km/h (0 Bft) NO 50 5 min 0,000 mm 1,0 UV-I 737 W/m 13,4 C 31,7 C 0,0 km/h (0 Bft) 0,00 %
05.08.2015 18:24 31,9 C 34 % 1015,0 hPa 0,0 l/m 0,0 km/h (0 Bft) SO 133 5 min 0,000 mm 1,0 UV-I 718 W/m 14,1 C 31,9 C 0,0 km/h (0 Bft) 0,00 %
05.08.2015 18:29 32,0 C 35 % 1014,8 hPa 0,0 l/m 0,0 km/h (0 Bft) NO 44 5 min 0,000 mm 1,0 UV-I 707 W/m 14,6 C 32,0 C 0,0 km/h (0 Bft) 0,00 %
05.08.2015 18:34 32,1 C 35 % 1014,8 hPa 0,0 l/m 0,0 km/h (0 Bft) O-NO 75 5 min 0,000 mm 1,0 UV-I 692 W/m 14,7 C 32,1 C 0,0 km/h (0 Bft) 0,00 %
05.08.2015 18:39 32,1 C 33 % 1014,9 hPa 0,0 l/m 0,0 km/h (0 Bft) O 99 5 min 0,000 mm 1,0 UV-I 669 W/m 13,8 C 32,1 C 0,0 km/h (0 Bft) 0,00 %
05.08.2015 18:44 31,9 C 35 % 1014,9 hPa 0,0 l/m 0,0 km/h (0 Bft) O 81 5 min 0,000 mm 1,0 UV-I 654 W/m 14,5 C 31,9 C 0,0 km/h (0 Bft) 0,00 %
05.08.2015 18:49 31,7 C 33 % 1014,9 hPa 0,0 l/m 2,2 km/h (1 Bft) O-SO 111 5 min 0,000 mm 1,0 UV-I 636 W/m 13,4 C 31,7 C 4,0 km/h (1 Bft) 0,00 %
05.08.2015 18:54 31,6 C 33 % 1014,9 hPa 0,0 l/m 1,4 km/h (1 Bft) SO 132 5 min 0,000 mm 1,0 UV-I 612 W/m 13,3 C 31,6 C 4,0 km/h (1 Bft) 0,00 %
05.08.2015 18:59 31,4 C 35 % 1014,9 hPa 0,0 l/m 0,0 km/h (0 Bft) NO 44 5 min 0,000 mm 1,0 UV-I 589 W/m 14,1 C 31,4 C 0,0 km/h (0 Bft) 0,00 %
05.08.2015 19:04 31,4 C 32 % 1015,0 hPa 0,0 l/m 0,0 km/h (0 Bft) O 80 5 min 0,000 mm 1,0 UV-I 569 W/m 12,7 C 31,4 C 0,0 km/h (0 Bft) 0,00 %
05.08.2015 19:09 31,5 C 37 % 1015,2 hPa 0,0 l/m 0,0 km/h (0 Bft) O-NO 72 5 min 0,000 mm 1,0 UV-I 545 W/m 15,0 C 31,5 C 0,0 km/h (0 Bft) 0,00 %
05.08.2015 19:14 31,7 C 33 % 1015,0 hPa 0,0 l/m 0,0 km/h (0 Bft) O-NO 70 5 min 0,000 mm 1,0 UV-I 518 W/m 13,4 C 31,7 C 0,0 km/h (0 Bft) 0,00 %
05.08.2015 19:19 31,8 C 34 % 1015,0 hPa 0,0 l/m 0,0 km/h (0 Bft) O-NO 70 5 min 0,000 mm 1,0 UV-I 488 W/m 14,0 C 31,8 C 0,0 km/h (0 Bft) 0,00 %
05.08.2015 19:24 31,7 C 36 % 1015,1 hPa 0,0 l/m 0,0 km/h (0 Bft) O-NO 67 5 min 0,000 mm 0,0 UV-I 455 W/m 14,8 C 31,7 C 0,0 km/h (0 Bft) 0,00 %
05.08.2015 19:29 31,6 C 35 % 1014,9 hPa 0,0 l/m 0,0 km/h (0 Bft) O-NO 67 5 min 0,000 mm 0,0 UV-I 420 W/m 14,2 C 31,6 C 0,0 km/h (0 Bft) 0,00 %
05.08.2015 19:34 31,5 C 35 % 1015,1 hPa 0,0 l/m 0,0 km/h (0 Bft) O-NO 62 5 min 0,000 mm 0,0 UV-I 376 W/m 14,2 C 31,5 C 0,0 km/h (0 Bft) 0,00 %
05.08.2015 19:39 31,4 C 34 % 1015,1 hPa 0,0 l/m 0,0 km/h (0 Bft) O-NO 61 5 min 0,000 mm 0,0 UV-I 338 W/m 13,6 C 31,4 C 0,0 km/h (0 Bft) 0,00 %
05.08.2015 19:44 31,2 C 35 % 1015,2 hPa 0,0 l/m 0,0 km/h (0 Bft) O-NO 70 5 min 0,000 mm 0,0 UV-I 298 W/m 13,9 C 31,2 C 0,0 km/h (0 Bft) 0,00 %
05.08.2015 19:49 31,1 C 36 % 1015,1 hPa 0,0 l/m 0,0 km/h (0 Bft) O-NO 70 5 min 0,000 mm 0,0 UV-I 248 W/m 14,2 C 31,1 C 0,0 km/h (0 Bft) 0,00 %
05.08.2015 19:54 30,8 C 37 % 1015,3 hPa 0,0 l/m 0,0 km/h (0 Bft) O-NO 70 5 min 0,000 mm 0,0 UV-I 111 W/m 14,4 C 30,8 C 0,0 km/h (0 Bft) 0,00 %
05.08.2015 19:59 30,4 C 38 % 1015,2 hPa 0,0 l/m 0,0 km/h (0 Bft) O-NO 70 5 min 0,000 mm 0,0 UV-I 75 W/m 14,5 C 30,4 C 0,0 km/h (0 Bft) 0,00 %
05.08.2015 20:04 29,9 C 40 % 1015,2 hPa 0,0 l/m 0,0 km/h (0 Bft) O 81 5 min 0,000 mm 0,0 UV-I 49 W/m 14,8 C 29,9 C 0,0 km/h (0 Bft) 0,00 %
05.08.2015 20:09 29,4 C 43 % 1015,2 hPa 0,0 l/m 0,0 km/h (0 Bft) O 81 5 min 0,000 mm 0,0 UV-I 41 W/m 15,5 C 29,4 C 0,0 km/h (0 Bft) 0,00 %
05.08.2015 20:14 28,8 C 44 % 1015,3 hPa 0,0 l/m 0,0 km/h (0 Bft) O 87 5 min 0,000 mm 0,0 UV-I 32 W/m 15,3 C 28,8 C 0,0 km/h (0 Bft) 0,00 %
05.08.2015 20:19 28,1 C 46 % 1015,4 hPa 0,0 l/m 0,0 km/h (0 Bft) O 83 5 min 0,000 mm 0,0 UV-I 25 W/m 15,4 C 28,1 C 0,0 km/h (0 Bft) 0,00 %
05.08.2015 20:24 27,4 C 49 % 1015,3 hPa 0,0 l/m 0,0 km/h (0 Bft) O 83 0 min 0,000 mm 0,0 UV-I 17 W/m 15,7 C 27,4 C 0,0 km/h (0 Bft) 0,00 %
05.08.2015 20:29 26,8 C 50 % 1015,4 hPa 0,0 l/m 0,0 km/h (0 Bft) O 82 0 min 0,000 mm 0,0 UV-I 5 W/m 15,5 C 26,8 C 0,0 km/h (0 Bft) 0,00 %
05.08.2015 20:34 26,2 C 51 % 1015,3 hPa 0,0 l/m 0,0 km/h (0 Bft) O 89 0 min 0,000 mm 0,0 UV-I 0 W/m 15,2 C 26,2 C 0,0 km/h (0 Bft) 0,00 %
05.08.2015 20:39 25,9 C 51 % 1015,3 hPa 0,0 l/m 0,0 km/h (0 Bft) O 83 0 min 0,000 mm 0,0 UV-I 0 W/m 15,0 C 25,9 C 0,0 km/h (0 Bft) 0,00 %
05.08.2015 20:44 25,5 C 54 % 1015,3 hPa 0,0 l/m 0,0 km/h (0 Bft) O 82 0 min 0,000 mm 0,0 UV-I 0 W/m 15,5 C 25,5 C 0,0 km/h (0 Bft) 0,00 %
05.08.2015 20:49 25,2 C 56 % 1015,3 hPa 0,0 l/m 0,0 km/h (0 Bft) O 82 0 min 0,000 mm 0,0 UV-I 0 W/m 15,8 C 25,2 C 0,0 km/h (0 Bft) 0,00 %
05.08.2015 20:54 24,9 C 58 % 1015,4 hPa 0,0 l/m 0,0 km/h (0 Bft) O 82 0 min 0,000 mm 0,0 UV-I 0 W/m 16,1 C 24,9 C 0,0 km/h (0 Bft) 0,00 %
05.08.2015 20:59 24,4 C 56 % 1015,5 hPa 0,0 l/m 0,0 km/h (0 Bft) O 88 0 min 0,000 mm 0,0 UV-I 0 W/m 15,0 C 24,4 C 0,0 km/h (0 Bft) 0,00 %
05.08.2015 21:04 24,3 C 58 % 1015,2 hPa 0,0 l/m 0,0 km/h (0 Bft) O 88 0 min 0,000 mm 0,0 UV-I 0 W/m 15,5 C 24,3 C 0,0 km/h (0 Bft) 0,00 %
05.08.2015 21:09 24,1 C 61 % 1015,3 hPa 0,0 l/m 0,0 km/h (0 Bft) O 88 0 min 0,000 mm 0,0 UV-I 0 W/m 16,1 C 24,1 C 0,0 km/h (0 Bft) 0,00 %
05.08.2015 21:14 24,0 C 60 % 1015,6 hPa 0,0 l/m 0,0 km/h (0 Bft) O 88 0 min 0,000 mm 0,0 UV-I 0 W/m 15,7 C 24,0 C 0,0 km/h (0 Bft) 0,00 %
05.08.2015 21:19 23,8 C 61 % 1015,6 hPa 0,0 l/m 0,0 km/h (0 Bft) O 85 0 min 0,000 mm 0,0 UV-I 0 W/m 15,8 C 23,8 C 0,0 km/h (0 Bft) 0,00 %
05.08.2015 21:24 23,6 C 63 % 1015,3 hPa 0,0 l/m 0,0 km/h (0 Bft) O 85 0 min 0,000 mm 0,0 UV-I 0 W/m 16,1 C 23,6 C 0,0 km/h (0 Bft) 0,00 %
05.08.2015 21:29 23,4 C 63 % 1015,5 hPa 0,0 l/m 0,0 km/h (0 Bft) O 85 0 min 0,000 mm 0,0 UV-I 0 W/m 15,9 C 23,4 C 0,0 km/h (0 Bft) 0,00 %
05.08.2015 21:34 23,2 C 64 % 1015,4 hPa 0,0 l/m 0,0 km/h (0 Bft) O 86 0 min 0,000 mm 0,0 UV-I 0 W/m 16,0 C 23,2 C 0,0 km/h (0 Bft) 0,00 %
05.08.2015 21:39 23,0 C 65 % 1015,3 hPa 0,0 l/m 0,0 km/h (0 Bft) O 85 0 min 0,000 mm 0,0 UV-I 0 W/m 16,1 C 23,0 C 0,0 km/h (0 Bft) 0,00 %
05.08.2015 21:44 22,9 C 64 % 1015,5 hPa 0,0 l/m 0,0 km/h (0 Bft) O 85 0 min 0,000 mm 0,0 UV-I 0 W/m 15,7 C 22,9 C 0,0 km/h (0 Bft) 0,00 %
05.08.2015 21:49 22,7 C 66 % 1015,5 hPa 0,0 l/m 0,0 km/h (0 Bft) O 85 0 min 0,000 mm 0,0 UV-I 0 W/m 16,0 C 22,7 C 0,0 km/h (0 Bft) 0,00 %
05.08.2015 21:54 22,5 C 67 % 1015,6 hPa 0,0 l/m 0,0 km/h (0 Bft) O 85 0 min 0,000 mm 0,0 UV-I 0 W/m 16,1 C 22,5 C 0,0 km/h (0 Bft) 0,00 %
05.08.2015 21:59 22,4 C 67 % 1015,6 hPa 0,0 l/m 0,0 km/h (0 Bft) O 85 0 min 0,000 mm 0,0 UV-I 0 W/m 16,0 C 22,4 C 0,0 km/h (0 Bft) 0,00 %
05.08.2015 22:04 22,2 C 68 % 1015,5 hPa 0,0 l/m 0,0 km/h (0 Bft) O 84 0 min 0,000 mm 0,0 UV-I 0 W/m 16,0 C 22,2 C 0,0 km/h (0 Bft) 0,00 %
05.08.2015 22:09 22,1 C 69 % 1015,5 hPa 0,0 l/m 0,0 km/h (0 Bft) O 84 0 min 0,000 mm 0,0 UV-I 0 W/m 16,1 C 22,1 C 0,0 km/h (0 Bft) 0,00 %
05.08.2015 22:14 21,9 C 69 % 1015,5 hPa 0,0 l/m 0,0 km/h (0 Bft) O-NO 75 0 min 0,000 mm 0,0 UV-I 0 W/m 15,9 C 21,9 C 0,0 km/h (0 Bft) 0,00 %
05.08.2015 22:19 21,7 C 70 % 1015,5 hPa 0,0 l/m 0,0 km/h (0 Bft) N-NO 32 0 min 0,000 mm 0,0 UV-I 0 W/m 16,0 C 21,7 C 0,0 km/h (0 Bft) 0,00 %
05.08.2015 22:24 21,6 C 70 % 1015,8 hPa 0,0 l/m 0,0 km/h (0 Bft) N-NO 32 0 min 0,000 mm 0,0 UV-I 0 W/m 15,9 C 21,6 C 0,0 km/h (0 Bft) 0,00 %
05.08.2015 22:30 21,5 C 70 % 1015,9 hPa 0,0 l/m 0,0 km/h (0 Bft) N-NO 32 0 min 0,000 mm 0,0 UV-I 0 W/m 15,8 C 21,5 C 0,0 km/h (0 Bft) 0,00 %
05.08.2015 22:35 21,3 C 72 % 1015,7 hPa 0,0 l/m 0,0 km/h (0 Bft) N-NO 32 0 min 0,000 mm 0,0 UV-I 0 W/m 16,0 C 21,3 C 0,0 km/h (0 Bft) 0,00 %
05.08.2015 22:40 21,1 C 72 % 1015,7 hPa 0,0 l/m 0,0 km/h (0 Bft) N-NO 32 0 min 0,000 mm 0,0 UV-I 0 W/m 15,8 C 21,1 C 0,0 km/h (0 Bft) 0,00 %
05.08.2015 22:45 21,0 C 72 % 1015,7 hPa 0,0 l/m 0,0 km/h (0 Bft) N-NO 32 0 min 0,000 mm 0,0 UV-I 0 W/m 15,8 C 21,0 C 0,0 km/h (0 Bft) 0,00 %
05.08.2015 22:50 20,8 C 72 % 1015,8 hPa 0,0 l/m 0,0 km/h (0 Bft) N-NO 32 0 min 0,000 mm 0,0 UV-I 0 W/m 15,6 C 20,8 C 0,0 km/h (0 Bft) 0,00 %
05.08.2015 22:55 20,7 C 73 % 1015,7 hPa 0,0 l/m 0,0 km/h (0 Bft) N-NO 32 0 min 0,000 mm 0,0 UV-I 0 W/m 15,7 C 20,7 C 0,0 km/h (0 Bft) 0,00 %
05.08.2015 23:00 20,6 C 74 % 1015,7 hPa 0,0 l/m 0,0 km/h (0 Bft) N-NO 32 0 min 0,000 mm 0,0 UV-I 0 W/m 15,8 C 20,6 C 0,0 km/h (0 Bft) 0,00 %
05.08.2015 23:05 20,5 C 74 % 1015,7 hPa 0,0 l/m 0,0 km/h (0 Bft) N-NO 32 0 min 0,000 mm 0,0 UV-I 0 W/m 15,7 C 20,5 C 0,0 km/h (0 Bft) 0,00 %
05.08.2015 23:10 20,4 C 74 % 1015,8 hPa 0,0 l/m 0,0 km/h (0 Bft) N-NO 32 0 min 0,000 mm 0,0 UV-I 0 W/m 15,6 C 20,4 C 0,0 km/h (0 Bft) 0,00 %
05.08.2015 23:15 20,3 C 75 % 1015,8 hPa 0,0 l/m 0,0 km/h (0 Bft) N-NO 32 0 min 0,000 mm 0,0 UV-I 0 W/m 15,7 C 20,3 C 0,0 km/h (0 Bft) 0,00 %
05.08.2015 23:20 20,2 C 76 % 1015,7 hPa 0,0 l/m 0,0 km/h (0 Bft) N-NO 32 0 min 0,000 mm 0,0 UV-I 0 W/m 15,8 C 20,2 C 0,0 km/h (0 Bft) 0,00 %
05.08.2015 23:25 20,2 C 77 % 1015,7 hPa 0,0 l/m 0,0 km/h (0 Bft) N-NO 32 0 min 0,000 mm 0,0 UV-I 0 W/m 16,0 C 20,2 C 0,0 km/h (0 Bft) 0,00 %
05.08.2015 23:30 20,1 C 79 % 1015,7 hPa 0,0 l/m 0,0 km/h (0 Bft) O 80 0 min 0,000 mm 0,0 UV-I 0 W/m 16,3 C 20,1 C 0,0 km/h (0 Bft) 0,00 %
05.08.2015 23:35 20,0 C 79 % 1015,7 hPa 0,0 l/m 0,0 km/h (0 Bft) O 80 0 min 0,000 mm 0,0 UV-I 0 W/m 16,2 C 20,0 C 0,0 km/h (0 Bft) 0,00 %
05.08.2015 23:40 19,9 C 79 % 1015,5 hPa 0,0 l/m 0,0 km/h (0 Bft) O 80 0 min 0,000 mm 0,0 UV-I 0 W/m 16,1 C 19,9 C 0,0 km/h (0 Bft) 0,00 %
05.08.2015 23:45 19,8 C 80 % 1015,5 hPa 0,0 l/m 0,0 km/h (0 Bft) O 79 0 min 0,000 mm 0,0 UV-I 0 W/m 16,2 C 19,8 C 0,0 km/h (0 Bft) 0,00 %
05.08.2015 23:50 19,7 C 79 % 1015,6 hPa 0,0 l/m 0,0 km/h (0 Bft) O 79 0 min 0,000 mm 0,0 UV-I 0 W/m 16,0 C 19,7 C 0,0 km/h (0 Bft) 0,00 %
05.08.2015 23:55 19,7 C 78 % 1015,7 hPa 0,0 l/m 0,0 km/h (0 Bft) O 79 0 min 0,000 mm 0,0 UV-I 0 W/m 15,8 C 19,7 C 0,0 km/h (0 Bft) 0,00 %
_ Min-Zeit 05:49 15:14 18:04 - 00:33 - - - - - - 15:14 05:49 00:33 00:03
Minimum _ 18,8 C 30 % 1014,7 hPa - 0,0 km/h (0 Bft) - - - - - - 10,9 C 18,8 C 0,0 km/h (0 Bft) 0,00 %
_ Max-Zeit 18:34 23:45 04:38 00:03 01:08 - - 06:04 00:03 12:29 14:49 23:30 18:34 00:43 00:03
Maximum _ 32,1 C 80 % 1019,6 hPa 0,0 l/m 10,4 km/h
W-SW (2 Bft)
- - 5 min 0,000 mm 5,0 UV-I 940 W/m 16,3 C 32,1 C 15,8 km/h
W-NW (3 Bft)
0,00 %
Durchschnitt _ 25,7 C 51 % 1017,5 hPa #0,0 l/m 0,9 km/h (0 Bft) O - #14:20 h #0,000 mm 2,5 UV-I 608 W/m 14,0 C 25,6 C 1,9 km/h (1 Bft) 0,00 %